sat.trackr.live / text

‹ back to catalog

STARLINK-32461

NORAD 61701 · 2024-195Q

PAYLOAD ACTIVE UNKNOWN

§ Identity

Operator
Country
US
Launch date
2024-10-30
Launch site
AFWTR
Launch vehicle
Mass (kg)
RCS (m²)

Purposes: comms

External: N2YO · Heavens-Above · Gunter

§ Orbital elements

Epoch: 2026-09-21T10:22:07.184640Z

Period
93.85 min
Inclination
53.1608°
Eccentricity
0.0001390
Mean motion
15.34403797 rev/d
Perigee alt
461.7 km
Apogee alt
463.6 km
Semi-major
6,840.8 km
B*
4.4874e-5
RAAN
321.6808°
Arg perigee
84.3248°
Mean anomaly
275.7913°
Rev number
10,721

§ Raw data

STARLINK-324611 61701U 24195Q   26264.43202760  .00001140  00000+0  44874-4 0  99962 61701  53.1608 321.6808 0001390  84.3248 275.7913 15.34403797107218

JSON: /api/v1/satellites/61701 · /tle

For live sub-satellite position, see the globe view (requires WebGL).

§ Visibility from observer

Set your observer location to see the next 7 days of passes ≥ 10°. The values pass through the URL so the page stays shareable.

No JS? Fill the form by hand. The geolocation button needs JavaScript.